| time (UTC) | temp C | wind direction | speed KPH | gust KPH | rain 1hr cm | rain 24hr cm | rain mn cm | humidity % | barometer mb |
| 20260503185019 | 15 | 203 | 8.0 | 14.5 | 0.00 | 0.00 | 0.00 | 42 | 1017.8 |
| 20260503184019 | 15 | 270 | 12.9 | 24.1 | 0.00 | 0.00 | 0.00 | 43 | 1017.9 |
| 20260503183021 | 15 | 315 | 9.7 | 19.3 | 0.00 | 0.00 | 0.00 | 43 | 1018.1 |
| 20260503182019 | 15 | 270 | 6.4 | 19.3 | 0.00 | 0.00 | 0.00 | 44 | 1018.3 |
| 20260503181019 | 15 | 270 | 8.0 | 16.1 | 0.00 | 0.00 | 0.00 | 43 | 1018.3 |
| 20260503180040 | 15 | 315 | 3.2 | 16.1 | 0.00 | 0.00 | 0.00 | 44 | 1018.2 |
| 20260503175019 | 15 | 248 | 3.2 | 9.7 | 0.00 | 0.00 | 0.00 | 41 | 1018.4 |
| 20260503174019 | 15 | 270 | 8.0 | 17.7 | 0.00 | 0.00 | 0.00 | 39 | 1018.6 |
| 20260503173019 | 14 | 203 | 4.8 | 14.5 | 0.00 | 0.00 | 0.00 | 41 | 1018.6 |
| 20260503172019 | 13 | 315 | 6.4 | 12.9 | 0.00 | 0.00 | 0.00 | 40 | 1018.7 |
| 20260503171019 | 14 | 0 | 6.4 | 12.9 | 0.00 | 0.00 | 0.00 | 44 | 1019.0 |
| 20260503131020 | 10 | 0.0 | 1.6 | 0.00 | 0.00 | 0.00 | 67 | 1020.0 | |
| 20260503081601 | 2 | 305 | 0.0 | 1.6 | 0.00 | 0.00 | 0.00 | 51 | 1017.1 |
| 20260503071605 | 5 | 305 | 0.0 | 1.6 | 0.00 | 0.00 | 0.00 | 53 | 1016.5 |
| 20260503054550 | 5 | 305 | 0.0 | 3.2 | 0.00 | 0.00 | 0.00 | 62 | 1016.2 |
| 20260503053037 | 5 | 305 | 1.6 | 3.2 | 0.00 | 0.00 | 0.00 | 67 | 1016.2 |
| 20260503051541 | 6 | 305 | 0.0 | 3.2 | 0.00 | 0.00 | 0.00 | 70 | 1016.1 |
| 20260503050024 | 6 | 305 | 0.0 | 3.2 | 0.00 | 0.00 | 0.00 | 72 | 1016.0 |
| 20260503044521 | 7 | 305 | 1.6 | 4.8 | 0.00 | 0.00 | 0.00 | 73 | 1015.8 |
| 20260503041518 | 8 | 327 | 1.6 | 3.2 | 0.00 | 0.00 | 0.00 | 69 | 1015.5 |
| 20260503040012 | 8 | 328 | 4.8 | 9.7 | 0.00 | 0.00 | 0.00 | 65 | 1015.4 |
| 20260503034507 | 9 | 5 | 3.2 | 6.4 | 0.00 | 0.00 | 0.00 | 65 | 1015.3 |
| 20260503033006 | 9 | 309 | 4.8 | 8.0 | 0.00 | 0.00 | 0.00 | 64 | 1015.3 |
| 20260503031505 | 9 | 300 | 4.8 | 8.0 | 0.00 | 0.00 | 0.00 | 64 | 1015.3 |
| 20260503030006 | 9 | 311 | 4.8 | 8.0 | 0.00 | 0.00 | 0.00 | 64 | 1015.3 |
| 20260503024502 | 9 | 313 | 4.8 | 8.0 | 0.00 | 0.00 | 0.00 | 63 | 1015.1 |
| 20260503023100 | 9 | 310 | 4.8 | 8.0 | 0.00 | 0.00 | 0.00 | 63 | 1014.9 |
| 20260503021602 | 9 | 311 | 4.8 | 8.0 | 0.00 | 0.00 | 0.00 | 64 | 1014.8 |
| 20260503020100 | 8 | 313 | 3.2 | 6.4 | 0.00 | 0.00 | 0.00 | 67 | 1014.6 |
| 20260503014607 | 9 | 313 | 1.6 | 6.4 | 0.00 | 0.00 | 0.00 | 66 | 1014.4 |
| 20260503013049 | 10 | 313 | 0.0 | 6.4 | 0.00 | 0.00 | 0.00 | 65 | 1014.2 |
| 20260503011603 | 10 | 314 | 3.2 | 6.4 | 0.00 | 0.00 | 0.00 | 59 | 1014.0 |
| 20260503010046 | 11 | 314 | 4.8 | 8.0 | 0.00 | 0.00 | 0.00 | 57 | 1013.7 |
| 20260503004546 | 11 | 302 | 3.2 | 12.9 | 0.00 | 0.00 | 0.00 | 56 | 1013.6 |
| 20260503003045 | 11 | 302 | 1.6 | 8.0 | 0.00 | 0.00 | 0.00 | 55 | 1013.5 |
| 20260503001545 | 12 | 317 | 6.4 | 16.1 | 0.00 | 0.00 | 0.00 | 52 | 1013.2 |
| 20260503000045 | 13 | 327 | 8.0 | 14.5 | 0.00 | 0.00 | 0.00 | 49 | 1012.9 |
| 20260502234606 | 13 | 317 | 8.0 | 16.1 | 0.00 | 0.00 | 0.00 | 49 | 1012.9 |
| 20260502233043 | 13 | 313 | 11.3 | 19.3 | 0.00 | 0.00 | 0.00 | 49 | 1012.9 |
| 20260502231543 | 13 | 292 | 4.8 | 9.7 | 0.00 | 0.00 | 0.00 | 52 | 1012.8 |
| 20260502230141 | 13 | 5 | 11.3 | 16.1 | 0.00 | 0.00 | 0.00 | 46 | 1012.6 |
| 20260502224541 | 15 | 319 | 12.9 | 19.3 | 0.00 | 0.00 | 0.00 | 43 | 1012.6 |
| 20260502223049 | 15 | 310 | 6.4 | 22.5 | 0.00 | 0.00 | 0.00 | 44 | 1012.6 |
| 20260502221539 | 14 | 335 | 11.3 | 16.1 | 0.00 | 0.00 | 0.00 | 44 | 1012.4 |
| 20260502220039 | 14 | 295 | 12.9 | 22.5 | 0.00 | 0.00 | 0.00 | 45 | 1012.3 |
| 20260502214539 | 15 | 313 | 8.0 | 22.5 | 0.00 | 0.00 | 0.00 | 40 | 1012.0 |
| 20260502213044 | 15 | 286 | 6.4 | 20.9 | 0.00 | 0.00 | 0.00 | 46 | 1011.9 |
| 20260502211638 | 15 | 328 | 19.3 | 27.4 | 0.00 | 0.00 | 0.00 | 40 | 1011.8 |
| 20260502210040 | 15 | 333 | 11.3 | 22.5 | 0.00 | 0.00 | 0.00 | 42 | 1011.7 |
| 20260502204536 | 15 | 323 | 8.0 | 19.3 | 0.00 | 0.00 | 0.00 | 40 | 1011.7 |
| 20260502203043 | 15 | 304 | 12.9 | 24.1 | 0.00 | 0.00 | 0.00 | 40 | 1011.7 |
| 20260502201538 | 16 | 278 | 14.5 | 27.4 | 0.00 | 0.00 | 0.00 | 43 | 1011.7 |
| 20260502200034 | 16 | 239 | 8.0 | 20.9 | 0.00 | 0.00 | 0.00 | 42 | 1011.7 |
| 20260502194532 | 16 | 355 | 11.3 | 20.9 | 0.00 | 0.00 | 0.00 | 39 | 1011.8 |
| 20260502193035 | 16 | 335 | 12.9 | 24.1 | 0.00 | 0.00 | 0.00 | 39 | 1011.8 |
| 20260502191536 | 16 | 323 | 11.3 | 17.7 | 0.00 | 0.00 | 0.00 | 40 | 1012.0 |
| 20260502190029 | 16 | 309 | 4.8 | 17.7 | 0.00 | 0.00 | 0.00 | 41 | 1012.1 |